Private Wetterstation Kalkriese

Lat.: 52° 24' 26" Nord • Long.: 8° 04' 41" Ost • Höhe: 57 m ü. NN
Sonntag, 26. März 2023 • 05:18:53 (UTC+2)

Tagesübersicht
Sonntag, 26. März 2023


Werte bei Min., Max., etc. sind Tagesdaten (Beginn 00:00 Uhr), Diagramme zeigen den Verlauf der letzten 24 Stunden.

Letzte / Nächste Aktualisierung: 05:15 / 06:15

Außentemperatur (2 m ü. Erdboden)

 

Bodentemperatur (5 cm ü. Erdboden)

Minimum: 6,4 °C • 05:15   Minimum: 3,9 °C • 05:15
Maximum: 8,3 °C • 00:00   Maximum: 7,8 °C • 00:00
Durchschnitt: 7,7 °C   Durchschnitt: 6,7 °C
 
mini_currentt   mini_currentt2

Taupunkt

 

Windchill

Minimum: 4,9 °C • 05:15   Minimum: 4,8 °C • 04:40
Maximum: 6,3 °C • 00:00   Maximum: 6,0 °C • 03:25
Durchschnitt: 5,7 °C   Durchschnitt: 5,6 °C
 
mini_currenttp   mini_currentwc

Außenluftfeuchtigkeit

 

Luftdruck

Minimum: 85 % • 00:20   Minimum: 1003,1 hPa • 05:10
Maximum: 90 % • 04:55   Maximum: 1004,0 hPa • 03:00
Durchschnitt: 87 %   Durchschnitt: 1003,6 hPa
 
mini_currentf   mini_currentd

Niederschlag

 

 

heutiger Tag: 0,0 l/m²   akt. Woche: 24,2 l/m²
letzten 24 Std.: 11,2 l/m²   akt. Monat: 77,4 l/m²
Regendauer Tag: 0 Minuten   akt. Jahr: 218,6 l/m²
 
mini_currentr   mini_currentxt

Windgeschwindigkeit

 

Windböen

Maximum: 19,3 km/h • 5 Bft • W-SW • 00:00   Maximum: 33,8 km/h • 7 Bft • W • 00:05
Durchschnitt: 12,3 km/h • 3 Bft   Durchschnitt: 21,3 km/h • 3 Bft
Dom. Windrichtung: W-SW   Dom. Windrichtung: W-SW
 
mini_currentw   mini_currentwb
 
mini_currentwr   mini_currentwdg

Windrichtung • Windstärke • Windböen

 

 

ddis_f_current   ddis_current
 
windbft_current    

Wolkenuntergrenze (berechnet)

 

Theta-E / Äquivalenttemperatur

mini_currentcl   mini_currentt7


Wetterdaten Tagesverlauf

Stundenwerte akt. Tag
 
Uhrzeit AT +2 m BT +5 cm ThetaE LF LD WG WR Solar UV-I
00:00 8,2 °C 7,8 °C 23,2 °C 87 % 1003,3 hPa 16,6 km/h W 0 W/m² 0,0
01:00 8,1 °C 7,8 °C 22,5 °C 86 % 1003,6 hPa 17,4 km/h W-SW 0 W/m² 0,0
02:00 -- °C -- °C -- °C -- % -- hPa -- km/h -- -- W/m² --
03:00 7,9 °C 7,2 °C 22,6 °C 87 % 1004,0 hPa 12,5 km/h W-SW 0 W/m² 0,0
04:00 7,6 °C 6,1 °C 21,9 °C 86 % 1003,6 hPa 10,4 km/h W 0 W/m² 0,0
05:00 6,7 °C 4,4 °C 21,0 °C 90 % 1003,2 hPa 5,5 km/h SW 0 W/m² 0,0
06:00 -- °C -- °C -- °C -- % -- hPa -- km/h -- -- W/m² --
07:00 -- °C -- °C -- °C -- % -- hPa -- km/h -- -- W/m² --
08:00 -- °C -- °C -- °C -- % -- hPa -- km/h -- -- W/m² --
09:00 -- °C -- °C -- °C -- % -- hPa -- km/h -- -- W/m² --
10:00 -- °C -- °C -- °C -- % -- hPa -- km/h -- -- W/m² --
11:00 -- °C -- °C -- °C -- % -- hPa -- km/h -- -- W/m² --
12:00 -- °C -- °C -- °C -- % -- hPa -- km/h -- -- W/m² --
13:00 -- °C -- °C -- °C -- % -- hPa -- km/h -- -- W/m² --
14:00 -- °C -- °C -- °C -- % -- hPa -- km/h -- -- W/m² --
15:00 -- °C -- °C -- °C -- % -- hPa -- km/h -- -- W/m² --
16:00 -- °C -- °C -- °C -- % -- hPa -- km/h -- -- W/m² --
17:00 -- °C -- °C -- °C -- % -- hPa -- km/h -- -- W/m² --
18:00 -- °C -- °C -- °C -- % -- hPa -- km/h -- -- W/m² --
19:00 -- °C -- °C -- °C -- % -- hPa -- km/h -- -- W/m² --
20:00 -- °C -- °C -- °C -- % -- hPa -- km/h -- -- W/m² --
21:00 -- °C -- °C -- °C -- % -- hPa -- km/h -- -- W/m² --
22:00 -- °C -- °C -- °C -- % -- hPa -- km/h -- -- W/m² --
23:00 -- °C -- °C -- °C -- % -- hPa -- km/h -- -- W/m² --


Wetterdaten Verlauf der letzten 24 Stunden

Stundenwerte ab Anfangszeit 05:00
 
Uhrzeit AT +2 m BT +5 cm ThetaE LF LD WG WR Solar UV-I
4:00 (vor 1 Std.) 7,4 °C 6,1 °C 21,4 °C 88 % 1003,6 hPa 10,6 km/h W 0 W/m² 0,0
3:00 (vor 2 Std.) 7,9 °C 7,2 °C 22,4 °C 86 % 1004,0 hPa 12,7 km/h SW 0 W/m² 0,0
2:00 (vor 3 Std.) 7,9 °C 7,2 °C 22,6 °C 87 % 1004,0 hPa 12,5 km/h W-SW 0 W/m² 0,0
1:00 (vor 4 Std.) 8,1 °C 7,2 °C 22,6 °C 86 % 1003,7 hPa 15,1 km/h W-SW 0 W/m² 0,0
0:00 (vor 5 Std.) 8,2 °C 7,8 °C 23,2 °C 86 % 1003,3 hPa 16,2 km/h W-SW 0 W/m² 0,0
23:00 (vor 6 Std.) 8,3 °C 7,8 °C 23,4 °C 88 % 1002,5 hPa 13,7 km/h W 0 W/m² 0,0
22:00 (vor 7 Std.) 8,4 °C 7,8 °C 23,2 °C 87 % 1001,9 hPa 16,8 km/h SW 0 W/m² 0,0
21:00 (vor 8 Std.) 8,1 °C 7,2 °C 22,8 °C 87 % 1001,8 hPa 15,1 km/h W-SW 0 W/m² 0,0
20:00 (vor 9 Std.) 8,3 °C 7,8 °C 23,2 °C 87 % 1001,5 hPa 20,8 km/h W 0 W/m² 0,0
19:00 (vor 10 Std.) 8,4 °C 7,2 °C 23,5 °C 87 % 1000,6 hPa 20,0 km/h SW 0 W/m² 0,0
18:00 (vor 11 Std.) 8,0 °C 6,7 °C 22,9 °C 87 % 999,8 hPa 19,7 km/h W-SW 39 W/m² 0,0
17:00 (vor 12 Std.) 10,1 °C 8,9 °C 26,8 °C 85 % 998,6 hPa 22,0 km/h W-SW 59 W/m² 0,0
16:00 (vor 13 Std.) 9,9 °C 8,9 °C 25,7 °C 85 % 998,8 hPa 14,4 km/h W-SW 27 W/m² 0,0
15:00 (vor 14 Std.) 10,3 °C 11,1 °C 26,0 °C 80 % 999,0 hPa 17,3 km/h W-SW 116 W/m² 0,7
14:00 (vor 15 Std.) 9,8 °C 10,0 °C 25,4 °C 84 % 999,1 hPa 20,2 km/h W-SW 255 W/m² 1,0
13:00 (vor 16 Std.) 10,7 °C 15,0 °C 26,6 °C 82 % 999,2 hPa 26,8 km/h SW 575 W/m² 2,4
12:00 (vor 17 Std.) 10,4 °C 11,1 °C 25,8 °C 82 % 999,3 hPa 21,4 km/h W-SW 257 W/m² 1,2
11:00 (vor 18 Std.) 8,8 °C 7,8 °C 24,3 °C 86 % 999,4 hPa 18,9 km/h W-SW 85 W/m² 0,4
10:00 (vor 19 Std.) 9,8 °C 11,1 °C 24,6 °C 84 % 999,0 hPa 21,4 km/h SW 379 W/m² 1,2
9:00 (vor 20 Std.) 8,3 °C 6,1 °C 25,2 °C 80 % 999,0 hPa 23,0 km/h W-NW 20 W/m² 0,0
8:00 (vor 21 Std.) 8,8 °C 8,3 °C 23,9 °C 85 % 998,7 hPa 21,9 km/h S-SW 77 W/m² 0,0
7:00 (vor 22 Std.) 8,2 °C 7,2 °C 23,2 °C 88 % 998,7 hPa 21,6 km/h S 32 W/m² 0,0
6:00 (vor 23 Std.) 8,4 °C 7,2 °C 23,5 °C 87 % 998,4 hPa 23,7 km/h SW 0 W/m² 0,0
5:00 (vor 24 Std.) 8,5 °C 7,2 °C 23,8 °C 86 % 998,4 hPa 16,6 km/h S-SW 0 W/m² 0,0